EW4696 Weather Reports


Display with metric or nautical units.
time (UTC)temp
F
wind
direction
speed
MPH
gust
MPH
rain 1hr
in
rain 24hr
in
rain mn
in
humidity
%
barometer
mb
20260902173504 97 120 1.0 3.0 0.00 0.00 0.00 49 1015.8
20260902173003 97 129 1.0 5.0 0.00 0.00 0.00 46 1015.8
20260902171504 96 173 1.0 4.0 0.00 0.00 0.00 49 1016.0
20260902171003 96 192 1.0 4.0 0.00 0.00 0.00 47 1016.1
20260902170503 96 214 1.0 4.0 0.00 0.00 0.00 50 1016.1
20260902170004 96 209 1.0 4.0 0.00 0.00 0.00 50 1016.2
20260902165003 96 207 1.0 4.0 0.00 0.00 0.00 51 1016.3
20260902164504 95 207 1.0 4.0 0.00 0.00 0.00 51 1016.4
20260902164003 95 204 1.0 5.0 0.00 0.00 0.00 51 1016.5
20260902163503 95 198 2.0 5.0 0.00 0.00 0.00 52 1016.6
20260902163004 94 197 1.0 5.0 0.00 0.00 0.00 52 1016.6
20260902162504 94 198 1.0 5.0 0.00 0.00 0.00 52 1016.5
20260902162004 94 0 0.0 4.0 0.00 0.00 0.00 53 1016.6
20260902161503 94 198 1.0 4.0 0.00 0.00 0.00 53 1016.5
20260902161004 93 198 1.0 4.0 0.00 0.00 0.00 54 1016.5
20260902160503 93 198 1.0 4.0 0.00 0.00 0.00 54 1016.5
20260902160003 92 198 1.0 4.0 0.00 0.00 0.00 55 1016.5
20260902155504 92 196 1.0 4.0 0.00 0.00 0.00 54 1016.6
20260902154503 92 194 1.0 5.0 0.00 0.00 0.00 56 1016.6
20260902154003 92 194 1.0 5.0 0.00 0.00 0.00 56 1016.7
20260902153504 91 194 1.0 7.0 0.00 0.00 0.00 58 1016.7
20260902153003 91 194 1.0 7.0 0.00 0.00 0.00 58 1016.7
20260902152503 90 194 1.0 4.0 0.00 0.00 0.00 58 1016.6
20260902152004 90 194 1.0 4.0 0.00 0.00 0.00 60 1016.6
20260902151504 90 194 1.0 4.0 0.00 0.00 0.00 59 1016.7
20260902150504 89 206 2.0 5.0 0.00 0.00 0.00 62 1016.6
20260902150004 89 196 1.0 6.0 0.00 0.00 0.00 61 1016.5
20260902145003 88 182 2.0 5.0 0.00 0.00 0.00 64 1016.5
20260902144504 87 179 2.0 5.0 0.00 0.00 0.00 63 1016.5
20260902144004 87 179 1.0 4.0 0.00 0.00 0.00 66 1016.6
20260902143503 87 179 1.0 5.0 0.00 0.00 0.00 68 1016.6
20260902143004 86 181 1.0 5.0 0.00 0.00 0.00 69 1016.7
20260902142503 85 184 1.0 2.0 0.00 0.00 0.00 70 1016.6
20260902142003 85 183 1.0 4.0 0.00 0.00 0.00 70 1016.6
20260902141004 84 117 2.0 19.0 0.00 0.00 0.00 71 1016.5
20260902140503 84 112 1.0 19.0 0.00 0.00 0.00 70 1016.6
20260902140003 84 0 0.0 5.0 0.00 0.00 0.00 72 1016.6
20260902135503 83 0 0.0 0.0 0.00 0.00 0.00 72 1016.6
20260902135004 83 0 0.0 0.0 0.00 0.00 0.00 74 1016.6
20260902134504 82 0 0.0 0.0 0.00 0.00 0.00 75 1016.5
20260902134003 81 0 0.0 0.0 0.00 0.00 0.00 77 1016.5
20260902133503 80 0 0.0 0.0 0.00 0.00 0.00 79 1016.4
20260902132003 78 0 0.0 0.0 0.00 0.00 0.00 82 1016.3
20260902131503 78 0 0.0 0.0 0.00 0.00 0.00 82 1016.2
20260902131004 77 0 0.0 0.0 0.00 0.00 0.00 82 1016.2
20260902130504 77 0 0.0 0.0 0.00 0.00 0.00 82 1016.2
20260902130004 77 0 0.0 0.0 0.00 0.00 0.00 83 1016.1
20260902125503 76 0 0.0 0.0 0.00 0.00 0.00 83 1016.1
20260902125004 76 0 0.0 0.0 0.00 0.00 0.00 84 1016.1
20260902124504 76 0 0.0 0.0 0.00 0.00 0.00 83 1016.0
20260902124003 76 0 0.0 0.0 0.00 0.00 0.00 83 1016.0
20260902123503 76 0 0.0 0.0 0.00 0.00 0.00 83 1015.9
20260902123003 76 0 0.0 0.0 0.00 0.00 0.00 83 1015.8
20260902122504 76 0 0.0 0.0 0.00 0.00 0.00 83 1015.8
20260902122003 76 0 0.0 0.0 0.00 0.00 0.00 83 1015.6
20260902121503 76 0 0.0 0.0 0.00 0.00 0.00 82 1015.6
20260902121004 76 0 0.0 0.0 0.00 0.00 0.00 82 1015.7
20260902120004 76 0 0.0 0.0 0.00 0.00 0.00 82 1015.6
20260902115503 76 0 0.0 0.0 0.00 0.00 0.00 82 1015.6
20260902115004 76 0 0.0 0.0 0.00 0.00 0.00 82 1015.6
20260902114504 76 0 0.0 0.0 0.00 0.00 0.00 82 1015.5
20260902114003 77 0 0.0 0.0 0.00 0.00 0.00 81 1015.5
20260902113503 77 0 0.0 0.0 0.00 0.00 0.00 81 1015.6
20260902113003 77 0 0.0 0.0 0.00 0.00 0.00 81 1015.4
20260902112504 77 0 0.0 0.0 0.00 0.00 0.00 81 1015.4
20260902112003 77 0 0.0 0.0 0.00 0.00 0.00 81 1015.4
20260902111503 77 0 0.0 0.0 0.00 0.00 0.00 81 1015.4
20260902111003 77 0 0.0 0.0 0.00 0.00 0.00 81 1015.5
20260902110504 77 0 0.0 0.0 0.00 0.00 0.00 81 1015.4
20260902110005 77 0 0.0 0.0 0.00 0.00 0.00 81 1015.5
20260902105503 77 0 0.0 0.0 0.00 0.00 0.00 81 1015.5
20260902105003 77 0 0.0 0.0 0.00 0.00 0.00 81 1015.4
20260902104504 78 0 0.0 0.0 0.00 0.00 0.00 81 1015.5
20260902104004 78 0 0.0 0.0 0.00 0.00 0.00 80 1015.4
20260902103503 78 0 0.0 0.0 0.00 0.00 0.00 80 1015.5
20260902103003 78 0 0.0 0.0 0.00 0.00 0.00 80 1015.4
20260902102504 78 0 0.0 0.0 0.00 0.00 0.00 80 1015.5
20260902102004 78 0 0.0 0.0 0.00 0.00 0.00 79 1015.5
20260902101003 78 0 0.0 3.0 0.00 0.00 0.00 79 1015.4
20260902095503 78 0 0.0 0.0 0.00 0.00 0.00 79 1015.4
20260902094004 78 0 0.0 1.0 0.00 0.00 0.00 79 1015.4
20260902093503 78 0 0.0 3.0 0.00 0.00 0.00 79 1015.4
20260902093003 78 0 0.0 3.0 0.00 0.00 0.00 79 1015.4
20260902091504 78 0 0.0 0.0 0.00 0.00 0.00 81 1015.4
20260902091003 78 0 0.0 0.0 0.00 0.00 0.00 82 1015.5
20260902090503 78 0 0.0 0.0 0.00 0.00 0.00 82 1015.7
20260902090004 79 0 0.0 0.0 0.00 0.00 0.00 82 1015.8
20260902085504 79 0 0.0 0.0 0.00 0.00 0.00 81 1015.7
20260902085004 79 0 0.0 0.0 0.00 0.00 0.00 81 1015.7
20260902084503 79 0 0.0 0.0 0.00 0.00 0.00 81 1015.6
20260902084003 79 0 0.0 0.0 0.00 0.00 0.00 80 1015.6
20260902083504 79 0 0.0 0.0 0.00 0.00 0.00 80 1015.5
20260902083003 79 0 0.0 0.0 0.00 0.00 0.00 80 1015.6
20260902082003 80 0 0.0 0.0 0.00 0.00 0.00 79 1015.8
20260902081504 80 0 0.0 0.0 0.00 0.00 0.00 79 1015.8
20260902081003 80 0 0.0 0.0 0.00 0.00 0.00 78 1015.7
20260902080503 80 0 0.0 0.0 0.00 0.00 0.00 78 1015.8
20260902075003 81 0 0.0 0.0 0.00 0.00 0.00 77 1015.8
20260902074004 81 0 0.0 0.0 0.00 0.00 0.00 76 1015.9
20260902073504 81 0 0.0 0.0 0.00 0.00 0.00 76 1015.9
20260902073003 81 0 0.0 1.0 0.00 0.00 0.00 76 1015.9
20260902072503 81 0 0.0 1.0 0.00 0.00 0.00 76 1015.8
20260902072003 82 0 0.0 1.0 0.00 0.00 0.00 76 1015.9
20260902071503 82 0 0.0 2.0 0.00 0.00 0.00 75 1016.0
20260902071003 82 0 0.0 2.0 0.00 0.00 0.00 75 1016.1
20260902070003 82 0 0.0 0.0 0.00 0.00 0.00 75 1016.1
20260902065504 82 0 0.0 0.0 0.00 0.00 0.00 74 1016.1
20260902065003 82 0 0.0 1.0 0.00 0.00 0.00 74 1016.2
20260902064503 82 0 0.0 1.0 0.00 0.00 0.00 74 1016.1
20260902063504 83 0 0.0 1.0 0.00 0.00 0.00 73 1016.0
20260902063003 83 0 0.0 1.0 0.00 0.00 0.00 73 1016.1
20260902062503 83 0 0.0 1.0 0.00 0.00 0.00 73 1016.1
20260902060003 83 0 0.0 1.0 0.00 0.00 0.00 73 1016.0
20260902055003 84 0 0.0 1.0 0.00 0.00 0.00 72 1016.0
20260902054504 84 0 0.0 1.0 0.00 0.00 0.00 72 1015.9
20260902054003 84 0 0.0 0.0 0.00 0.00 0.00 72 1015.8
20260902053503 84 0 0.0 1.0 0.00 0.00 0.00 71 1015.8
20260902053003 84 0 0.0 2.0 0.00 0.00 0.00 71 1015.9
20260902052504 84 0 0.0 2.0 0.00 0.00 0.00 71 1015.9
20260902051503 84 0 0.0 3.0 0.00 0.00 0.00 71 1015.7
20260902051003 84 0 0.0 3.0 0.00 0.00 0.00 70 1015.9
20260902050007 85 0 0.0 2.0 0.00 0.00 0.00 69 1015.9
20260902045503 85 0 0.0 3.0 0.00 0.00 0.00 69 1015.8
20260902045003 85 0 0.0 3.0 0.00 0.00 0.00 69 1015.9
20260902044503 85 0 0.0 3.0 0.00 0.00 0.00 68 1015.9
20260902044004 85 0 0.0 3.0 0.00 0.00 0.00 68 1016.0
20260902043503 85 101 1.0 3.0 0.00 0.00 0.00 67 1015.9
20260902043003 85 101 1.0 3.0 0.00 0.00 0.00 67 1015.9
20260902042004 85 0 0.0 2.0 0.00 0.00 0.00 66 1016.0
20260902041504 85 0 0.0 3.0 0.00 0.00 0.00 66 1015.9
20260902040504 86 0 0.0 2.0 0.00 0.00 0.00 65 1015.7
20260902040005 86 0 0.0 1.0 0.00 0.00 0.00 65 1015.8
20260902035504 86 0 0.0 1.0 0.00 0.00 0.00 65 1015.7
20260902035004 86 0 0.0 1.0 0.00 0.00 0.00 64 1015.7
20260902034504 86 0 0.0 1.0 0.00 0.00 0.00 64 1015.7
20260902034005 86 0 0.0 1.0 0.00 0.00 0.00 64 1015.6
20260902033504 86 0 0.0 3.0 0.00 0.00 0.00 64 1015.6
20260902033004 86 0 0.0 3.0 0.00 0.00 0.00 63 1015.4
20260902032005 87 0 0.0 0.0 0.00 0.00 0.00 63 1015.4
20260902031504 87 0 0.0 1.0 0.00 0.00 0.00 63 1015.3
20260902030004 87 0 0.0 1.0 0.00 0.00 0.00 62 1015.0
20260902025505 88 0 0.0 1.0 0.00 0.00 0.00 61 1014.9
20260902025005 88 0 0.0 1.0 0.00 0.00 0.00 61 1014.8
20260902024504 88 0 0.0 1.0 0.00 0.00 0.00 60 1014.7
20260902024004 88 0 0.0 2.0 0.00 0.00 0.00 60 1014.7
20260902023505 88 0 0.0 2.0 0.00 0.00 0.00 59 1014.6
20260902023004 88 0 0.0 3.0 0.00 0.00 0.00 59 1014.5
20260902022504 88 0 0.0 3.0 0.00 0.00 0.00 58 1014.4
20260902021505 89 0 0.0 2.0 0.00 0.00 0.00 57 1014.2
20260902021004 89 0 0.0 3.0 0.00 0.00 0.00 57 1014.2
20260902020504 90 0 0.0 3.0 0.00 0.00 0.00 56 1014.1
20260902020005 90 0 0.0 2.0 0.00 0.00 0.00 55 1014.0
20260902015505 90 0 0.0 2.0 0.00 0.00 0.00 54 1014.0
20260902015004 90 0 0.0 4.0 0.00 0.00 0.00 53 1013.9
20260902014005 91 98 1.0 3.0 0.00 0.00 0.00 52 1013.8
20260902013504 91 97 2.0 6.0 0.00 0.00 0.00 51 1013.7
20260902013004 92 94 2.0 6.0 0.00 0.00 0.00 51 1013.7
20260902012505 92 90 1.0 6.0 0.00 0.00 0.00 50 1013.6
20260902012004 92 88 1.0 5.0 0.00 0.00 0.00 49 1013.5
20260902011505 92 88 1.0 5.0 0.00 0.00 0.00 48 1013.5
20260902011004 92 0 0.0 5.0 0.00 0.00 0.00 48 1013.5
20260902010504 93 88 1.0 5.0 0.00 0.00 0.00 48 1013.5
20260902010005 93 87 1.0 5.0 0.00 0.00 0.00 48 1013.4
20260902005504 93 82 1.0 5.0 0.00 0.00 0.00 47 1013.5
20260902005005 93 82 1.0 5.0 0.00 0.00 0.00 47 1013.5
20260902004004 94 91 1.0 5.0 0.00 0.00 0.00 47 1013.5
20260902003504 94 113 1.0 6.0 0.00 0.00 0.00 46 1013.6
20260902003004 94 107 1.0 6.0 0.00 0.00 0.00 46 1013.6
20260902002005 95 17 1.0 2.0 0.00 0.00 0.00 45 1013.6
20260902001504 95 17 1.0 3.0 0.00 0.00 0.00 44 1013.6
20260902001005 95 37 1.0 5.0 0.00 0.00 0.00 44 1013.6
20260902000504 95 43 1.0 5.0 0.00 0.00 0.00 44 1013.6
20260902000004 96 64 1.0 5.0 0.00 0.00 0.00 44 1013.6
20260901235505 96 87 2.0 5.0 0.00 0.00 0.00 44 1013.5
20260901235004 96 90 2.0 7.0 0.00 0.00 0.00 44 1013.6
20260901234504 96 77 2.0 7.0 0.00 0.00 0.00 44 1013.5
20260901234004 96 58 2.0 7.0 0.00 0.00 0.00 44 1013.5
20260901233005 97 83 1.0 6.0 0.00 0.00 0.00 44 1013.5
20260901232004 97 80 1.0 6.0 0.00 0.00 0.00 43 1013.5
20260901231505 97 78 1.0 6.0 0.00 0.00 0.00 43 1013.5
20260901231004 97 77 1.0 5.0 0.00 0.00 0.00 43 1013.5
20260901230505 97 84 1.0 6.0 0.00 0.00 0.00 43 1013.4
20260901230005 98 87 1.0 7.0 0.00 0.00 0.00 43 1013.5
20260901225504 98 83 1.0 7.0 0.00 0.00 0.00 43 1013.5
20260901225005 98 86 2.0 5.0 0.00 0.00 0.00 43 1013.5
20260901224504 98 93 2.0 5.0 0.00 0.00 0.00 43 1013.5
20260901224005 98 94 2.0 8.0 0.00 0.00 0.00 44 1013.5
20260901223504 98 92 1.0 8.0 0.00 0.00 0.00 43 1013.6
20260901223005 98 92 1.0 5.0 0.00 0.00 0.00 42 1013.5
20260901222505 99 91 1.0 5.0 0.00 0.00 0.00 41 1013.4
20260901222004 99 93 2.0 8.0 0.00 0.00 0.00 42 1013.5
20260901221005 99 94 1.0 5.0 0.00 0.00 0.00 44 1013.6
20260901220004 97 94 1.0 5.0 0.00 0.00 0.00 44 1013.6
20260901215004 97 92 2.0 5.0 0.00 0.00 0.00 43 1013.6
20260901214004 99 89 2.0 5.0 0.00 0.00 0.00 42 1013.7
20260901213504 99 87 1.0 5.0 0.00 0.00 0.00 43 1013.6
20260901213005 99 86 1.0 6.0 0.00 0.00 0.00 43 1013.6
20260901212504 98 86 1.0 6.0 0.00 0.00 0.00 43 1013.7
20260901212005 98 84 1.0 5.0 0.00 0.00 0.00 45 1013.8
20260901211504 97 84 1.0 5.0 0.00 0.00 0.00 45 1013.9
20260901211004 97 84 1.0 2.0 0.00 0.00 0.00 44 1014.0
20260901210505 98 89 1.0 5.0 0.00 0.00 0.00 43 1014.1
20260901210004 98 87 2.0 5.0 0.00 0.00 0.00 44 1014.2
20260901205004 98 73 1.0 4.0 0.00 0.00 0.00 45 1014.3
20260901204504 97 73 1.0 4.0 0.00 0.00 0.00 46 1014.3
20260901204004 97 71 1.0 4.0 0.00 0.00 0.00 45 1014.4
20260901203504 97 64 2.0 5.0 0.00 0.00 0.00 45 1014.5
20260901202504 98 57 1.0 3.0 0.00 0.00 0.00 43 1014.6
20260901202005 98 75 1.0 5.0 0.00 0.00 0.00 45 1014.7
20260901201504 97 83 2.0 5.0 0.00 0.00 0.00 47 1014.8
20260901201004 96 82 1.0 5.0 0.00 0.00 0.00 46 1014.8
20260901200504 96 82 1.0 5.0 0.00 0.00 0.00 47 1014.9
20260901200005 96 82 1.0 5.0 0.00 0.00 0.00 46 1015.0
20260901195504 97 82 2.0 6.0 0.00 0.00 0.00 45 1015.0
20260901195004 98 81 2.0 6.0 0.00 0.00 0.00 45 1015.1
20260901194505 98 81 2.0 5.0 0.00 0.00 0.00 45 1015.1
20260901194004 97 81 2.0 8.0 0.00 0.00 0.00 46 1015.2
20260901193504 96 81 1.0 8.0 0.00 0.00 0.00 48 1015.3
20260901193004 95 0 0.0 3.0 0.00 0.00 0.00 47 1015.3
20260901192504 95 82 1.0 5.0 0.00 0.00 0.00 47 1015.4
20260901192004 96 82 1.0 5.0 0.00 0.00 0.00 46 1015.4
20260901191504 96 83 1.0 5.0 0.00 0.00 0.00 45 1015.5
20260901191004 97 85 1.0 5.0 0.00 0.00 0.00 46 1015.6
20260901190505 97 87 1.0 5.0 0.00 0.00 0.00 45 1015.7
20260901190004 97 88 1.0 5.0 0.00 0.00 0.00 47 1015.7
20260901185504 97 88 2.0 5.0 0.00 0.00 0.00 47 1015.8
20260901185004 96 90 2.0 6.0 0.00 0.00 0.00 49 1015.9
20260901184504 96 100 2.0 6.0 0.00 0.00 0.00 47 1016.0
20260901184005 96 110 2.0 4.0 0.00 0.00 0.00 48 1016.1
20260901183504 95 103 2.0 5.0 0.00 0.00 0.00 50 1016.2
20260901183004 95 96 2.0 7.0 0.00 0.00 0.00 50 1016.3
20260901182505 95 101 2.0 7.0 0.00 0.00 0.00 52 1016.4
20260901182004 94 105 1.0 8.0 0.00 0.00 0.00 50 1016.4
20260901181005 94 62 1.0 4.0 0.00 0.00 0.00 51 1016.7
20260901180504 95 62 1.0 4.0 0.00 0.00 0.00 51 1016.7
20260901175004 95 67 2.0 7.0 0.00 0.00 0.00 51 1016.9
20260901174504 95 76 1.0 6.0 0.00 0.00 0.00 51 1016.9
20260901174006 95 81 1.0 6.0 0.00 0.00 0.00 51 1017.0